TimeEDT,TemperatureF,Dew PointF,Humidity,Sea Level PressureIn,VisibilityMPH,Wind Direction,Wind SpeedMPH,Gust SpeedMPH,PrecipitationIn,Events,Conditions,WindDirDegrees,DateUTC
12:53 AM,66.9,64.9,93,30.02,9.0,Calm,Calm,-,N/A,,Clear,0,2013-08-03 04:53:00
1:53 AM,66.9,64.0,90,30.01,8.0,SSE,3.5,-,N/A,,Clear,150,2013-08-03 05:53:00
2:53 AM,66.9,64.9,93,30.01,10.0,Calm,Calm,-,N/A,,Clear,0,2013-08-03 06:53:00
3:53 AM,66.9,64.0,90,30.01,10.0,Calm,Calm,-,N/A,,Clear,0,2013-08-03 07:53:00
4:53 AM,66.0,64.0,93,30.00,10.0,Calm,Calm,-,N/A,,Clear,0,2013-08-03 08:53:00
5:53 AM,66.0,64.0,93,30.00,10.0,Calm,Calm,-,N/A,,Overcast,0,2013-08-03 09:53:00
6:53 AM,66.9,64.0,90,30.01,10.0,Calm,Calm,-,N/A,,Mostly Cloudy,0,2013-08-03 10:53:00
7:53 AM,66.9,64.9,93,30.02,10.0,Calm,Calm,-,N/A,,Scattered Clouds,0,2013-08-03 11:53:00
8:53 AM,71.1,64.9,81,30.01,10.0,Calm,Calm,-,N/A,,Clear,0,2013-08-03 12:53:00
9:53 AM,75.9,64.0,67,30.01,10.0,SW,4.6,-,N/A,,Partly Cloudy,220,2013-08-03 13:53:00
10:53 AM,78.1,64.9,64,30.02,10.0,SW,5.8,-,N/A,,Scattered Clouds,220,2013-08-03 14:53:00
11:53 AM,80.1,64.9,60,30.02,10.0,SW,11.5,-,N/A,,Clear,230,2013-08-03 15:53:00
12:53 PM,80.1,66.0,62,30.03,10.0,West,13.8,-,N/A,,Overcast,270,2013-08-03 16:53:00
1:53 PM,81.0,68.0,65,30.02,10.0,WNW,6.9,-,N/A,,Overcast,290,2013-08-03 17:53:00
2:53 PM,81.0,68.0,65,30.01,10.0,West,8.1,-,N/A,,Overcast,260,2013-08-03 18:53:00
3:53 PM,81.0,66.9,62,30.00,10.0,West,10.4,-,N/A,,Mostly Cloudy,280,2013-08-03 19:53:00
4:53 PM,82.0,68.0,62,29.99,10.0,West,9.2,-,N/A,,Mostly Cloudy,270,2013-08-03 20:53:00
5:53 PM,81.0,68.0,65,29.99,10.0,West,10.4,-,N/A,,Overcast,260,2013-08-03 21:53:00
6:53 PM,79.0,68.0,69,29.98,10.0,WSW,8.1,-,N/A,,Overcast,250,2013-08-03 22:53:00
7:53 PM,78.1,70.0,76,29.97,10.0,WNW,5.8,-,0.00,,Mostly Cloudy,300,2013-08-03 23:53:00
8:53 PM,75.0,69.1,82,29.98,10.0,WNW,3.5,-,N/A,,Clear,300,2013-08-04 00:53:00
9:53 PM,75.0,69.1,82,29.99,10.0,West,3.5,-,N/A,,Clear,280,2013-08-04 01:53:00
10:53 PM,72.0,69.1,91,30.01,8.0,Calm,Calm,-,N/A,,Clear,0,2013-08-04 02:53:00
11:38 PM,71.6,69.8,94,30.05,2.5,NW,3.5,-,0.06,Rain,Heavy Rain,320,2013-08-04 03:38:00
11:49 PM,71.6,69.8,94,30.06,6.0,NW,3.5,-,0.06,Rain,Light Rain,320,2013-08-04 03:49:00
11:53 PM,72.0,70.0,93,30.02,7.0,WNW,4.6,-,0.06,Rain,Light Rain,300,2013-08-04 03:53:00